TimeMST,TemperatureF,Dew PointF,Humidity,Sea Level PressureIn,VisibilityMPH,Wind Direction,Wind SpeedMPH,Gust SpeedMPH,PrecipitationIn,Events,Conditions,WindDirDegrees,DateUTC
12:15 AM,39.2,35.6,87,30.29,10.0,NW,9.2,-,N/A,,Clear,320,2012-11-19 07:15:00
12:35 AM,39.2,35.6,87,30.28,10.0,NNW,10.4,-,N/A,,Scattered Clouds,340,2012-11-19 07:35:00
12:55 AM,41.0,35.6,81,30.28,10.0,North,8.1,-,N/A,,Scattered Clouds,360,2012-11-19 07:55:00
1:35 AM,41.0,35.6,81,30.28,10.0,North,9.2,-,N/A,,Scattered Clouds,360,2012-11-19 08:35:00
1:55 AM,41.0,35.6,81,30.28,10.0,North,10.4,-,N/A,,Clear,10,2012-11-19 08:55:00
2:15 AM,41.0,35.6,81,30.28,10.0,North,9.2,-,N/A,,Clear,360,2012-11-19 09:15:00
2:35 AM,41.0,35.6,81,30.28,10.0,North,9.2,-,N/A,,Clear,360,2012-11-19 09:35:00
2:55 AM,41.0,35.6,81,30.28,10.0,North,9.2,-,N/A,,Scattered Clouds,350,2012-11-19 09:55:00
3:15 AM,39.2,35.6,87,30.28,10.0,North,8.1,-,N/A,,Mostly Cloudy,360,2012-11-19 10:15:00
3:35 AM,41.0,35.6,81,30.27,10.0,North,10.4,-,N/A,,Partly Cloudy,10,2012-11-19 10:35:00
3:55 AM,41.0,35.6,81,30.27,10.0,North,9.2,-,N/A,,Clear,360,2012-11-19 10:55:00
4:15 AM,41.0,35.6,81,30.27,10.0,North,9.2,-,N/A,,Clear,350,2012-11-19 11:15:00
4:35 AM,41.0,35.6,81,30.27,10.0,North,8.1,-,N/A,,Clear,350,2012-11-19 11:35:00
4:55 AM,39.2,35.6,87,30.28,10.0,NW,3.5,-,N/A,,Clear,320,2012-11-19 11:55:00
5:15 AM,41.0,35.6,81,30.28,10.0,Calm,Calm,-,N/A,,Clear,0,2012-11-19 12:15:00
5:35 AM,39.2,33.8,81,30.29,10.0,NW,3.5,-,N/A,,Clear,320,2012-11-19 12:35:00
5:55 AM,39.2,33.8,81,30.29,10.0,North,8.1,-,N/A,,Clear,360,2012-11-19 12:55:00
6:15 AM,39.2,33.8,81,30.30,10.0,North,9.2,-,N/A,,Clear,350,2012-11-19 13:15:00
6:35 AM,39.2,35.6,87,30.30,10.0,NNW,5.8,-,N/A,,Clear,340,2012-11-19 13:35:00
6:55 AM,35.6,32.0,87,30.31,10.0,NNW,5.8,-,N/A,,Clear,340,2012-11-19 13:55:00
7:15 AM,37.4,33.8,87,30.31,10.0,North,5.8,-,N/A,,Clear,350,2012-11-19 14:15:00
7:55 AM,42.8,37.4,81,30.33,10.0,NW,5.8,-,N/A,,Clear,310,2012-11-19 14:55:00
8:15 AM,46.4,37.4,71,30.34,10.0,WNW,4.6,-,N/A,,Clear,290,2012-11-19 15:15:00
8:35 AM,50.0,39.2,66,30.35,10.0,NW,3.5,-,N/A,,Clear,320,2012-11-19 15:35:00
8:55 AM,53.6,39.2,58,30.35,10.0,Calm,Calm,-,N/A,,Clear,0,2012-11-19 15:55:00
9:15 AM,55.4,39.2,54,30.35,10.0,Calm,Calm,-,N/A,,Clear,0,2012-11-19 16:15:00
9:35 AM,57.2,41.0,55,30.35,10.0,SSW,3.5,-,N/A,,Clear,200,2012-11-19 16:35:00
9:55 AM,59.0,35.6,42,30.36,10.0,Calm,Calm,-,N/A,,Clear,0,2012-11-19 16:55:00
10:15 AM,59.0,32.0,36,30.35,10.0,ENE,3.5,-,N/A,,Clear,70,2012-11-19 17:15:00
10:35 AM,59.0,32.0,36,30.35,10.0,SSW,6.9,-,N/A,,Clear,210,2012-11-19 17:35:00
10:55 AM,60.8,32.0,34,30.35,10.0,West,6.9,-,N/A,,Partly Cloudy,260,2012-11-19 17:55:00
11:15 AM,59.0,32.0,36,30.35,10.0,NW,5.8,-,N/A,,Clear,320,2012-11-19 18:15:00
11:35 AM,60.8,32.0,34,30.34,10.0,SW,4.6,-,N/A,,Clear,230,2012-11-19 18:35:00
11:55 AM,62.6,32.0,32,30.33,10.0,SW,8.1,-,N/A,,Clear,220,2012-11-19 18:55:00
12:15 PM,62.6,32.0,32,30.32,10.0,SW,5.8,-,N/A,,Scattered Clouds,220,2012-11-19 19:15:00
12:35 PM,62.6,32.0,32,30.30,10.0,South,6.9,-,N/A,,Scattered Clouds,180,2012-11-19 19:35:00
12:55 PM,62.6,32.0,32,30.30,10.0,Calm,Calm,-,N/A,,Partly Cloudy,0,2012-11-19 19:55:00
1:15 PM,62.6,32.0,32,30.30,10.0,West,4.6,-,N/A,,Mostly Cloudy,280,2012-11-19 20:15:00
1:35 PM,62.6,32.0,32,30.29,10.0,SSW,6.9,-,N/A,,Partly Cloudy,210,2012-11-19 20:35:00
1:55 PM,64.4,32.0,30,30.29,10.0,Calm,Calm,-,N/A,,Partly Cloudy,0,2012-11-19 20:55:00
2:15 PM,64.4,30.2,28,30.29,10.0,WNW,5.8,-,N/A,,Clear,300,2012-11-19 21:15:00
2:35 PM,62.6,32.0,32,30.29,10.0,SW,5.8,-,N/A,,Clear,220,2012-11-19 21:35:00
2:55 PM,62.6,32.0,32,30.29,10.0,WSW,6.9,-,N/A,,Clear,250,2012-11-19 21:55:00
3:15 PM,62.6,28.4,27,30.29,10.0,West,3.5,-,N/A,,Clear,260,2012-11-19 22:15:00
3:35 PM,62.6,28.4,27,30.29,10.0,North,3.5,-,N/A,,Clear,10,2012-11-19 22:35:00
3:55 PM,62.6,28.4,27,30.29,10.0,WNW,9.2,-,N/A,,Clear,290,2012-11-19 22:55:00
4:15 PM,62.6,28.4,27,30.29,10.0,NW,8.1,-,N/A,,Clear,310,2012-11-19 23:15:00
4:35 PM,60.8,26.6,27,30.29,10.0,WNW,9.2,-,N/A,,Clear,300,2012-11-19 23:35:00
4:55 PM,59.0,24.8,27,30.29,10.0,NW,8.1,-,N/A,,Clear,310,2012-11-19 23:55:00
5:15 PM,55.4,24.8,31,30.30,10.0,NNW,6.9,-,N/A,,Clear,330,2012-11-20 00:15:00
5:35 PM,50.0,24.8,37,30.30,10.0,NW,9.2,-,N/A,,Clear,320,2012-11-20 00:35:00
5:55 PM,53.6,24.8,33,30.31,10.0,NW,11.5,-,N/A,,Clear,320,2012-11-20 00:55:00
6:15 PM,48.2,23.0,37,30.32,10.0,NNW,8.1,-,N/A,,Clear,340,2012-11-20 01:15:00
6:35 PM,48.2,24.8,40,30.32,10.0,NNW,9.2,-,N/A,,Clear,340,2012-11-20 01:35:00
6:55 PM,46.4,24.8,43,30.32,10.0,North,6.9,-,N/A,,Clear,360,2012-11-20 01:55:00
7:15 PM,44.6,24.8,46,30.33,10.0,North,8.1,-,N/A,,Clear,350,2012-11-20 02:15:00
7:55 PM,44.6,24.8,46,30.33,10.0,North,10.4,-,N/A,,Clear,360,2012-11-20 02:55:00
8:15 PM,42.8,24.8,49,30.34,10.0,NNE,5.8,-,N/A,,Clear,20,2012-11-20 03:15:00
8:35 PM,42.8,23.0,46,30.34,10.0,North,11.5,-,N/A,,Clear,360,2012-11-20 03:35:00
8:55 PM,41.0,23.0,49,30.34,10.0,North,8.1,-,N/A,,Clear,10,2012-11-20 03:55:00
9:15 PM,41.0,23.0,49,30.35,10.0,North,10.4,-,N/A,,Clear,360,2012-11-20 04:15:00
9:35 PM,39.2,23.0,52,30.35,10.0,North,9.2,-,N/A,,Clear,350,2012-11-20 04:35:00
9:55 PM,39.2,23.0,52,30.35,10.0,North,9.2,-,N/A,,Clear,360,2012-11-20 04:55:00
10:15 PM,41.0,23.0,49,30.35,10.0,North,10.4,-,N/A,,Clear,360,2012-11-20 05:15:00
10:35 PM,39.2,23.0,52,30.34,10.0,North,10.4,-,N/A,,Clear,360,2012-11-20 05:35:00